Date String (YYYY-MM-DD hh:mm:ss) UTC,Instrument flags,absolute air pressure of the measurement (hPa),sample flow rate (lpm),inlet stack bypass flow (lpm),air temperature of the measurement (°C),ambient temperature measured by the external sensor (°C),aerosol sample conditioner tube jacket temperature (°C),OPC LED temperature (°C),internal box temperature (°C),relative humidity of the measurement (%),span deviation,mass concentration of particles derived from Lorenz-Mie calculation of OPC scattering (μg/m³),mass concentration of particles derived from Lorenz-Mie calculation of OPC scattering (μg/m³),mass concentration of particles derived from Lorenz-Mie calculation of OPC scattering (μg/m³)
DateTimeUTC,F1_M11,P_M11,Q1_M11,Q2_M11,T1_M11,T2_M11,T3_M11,T4_M11,T5_M11,U1_M11,ZSPAN_M11,X2_M11,X0_M11,X1_M11
2023-07-16 22:00:00,SystemResetWarning,0833.8,5.01,000.00,028.7,024.8,000.0,036.9,030.1,27.0,0000.9,0010.03,0017.38,0009.24
2023-07-16 22:01:00,SystemResetWarning,0833.8,5.01,000.00,028.7,025.0,000.0,036.9,030.0,27.1,0000.5,0009.92,0016.62,0009.17
2023-07-16 22:02:00,SystemResetWarning,0833.8,5.00,000.00,028.6,025.4,000.0,036.9,030.0,27.8,0000.6,0009.89,0015.80,0009.12
2023-07-16 22:03:00,SystemResetWarning,0833.8,5.00,000.00,028.6,025.9,000.0,037.0,030.1,27.8,0001.0,0009.82,0015.85,0009.08
2023-07-16 22:04:00,SystemResetWarning,0833.8,5.01,000.00,028.7,026.4,000.0,037.0,030.2,27.6,0001.3,0009.77,0016.37,0009.03
2023-07-16 22:05:00,SystemResetWarning,0833.8,5.00,000.00,028.7,026.8,000.0,037.0,030.3,28.1,0001.2,0009.69,0016.86,0008.97
2023-07-16 22:06:00,SystemResetWarning,0833.8,5.00,000.00,028.8,027.1,000.0,037.0,030.4,27.7,0001.1,0009.65,0017.70,0008.90
2023-07-16 22:07:00,SystemResetWarning,0833.9,5.00,000.00,028.8,027.5,000.0,037.1,030.5,27.5,0001.0,0009.61,0017.93,0008.84
2023-07-16 22:08:00,SystemResetWarning,0833.8,5.00,000.00,028.9,027.4,000.0,037.0,030.6,27.8,0000.9,0009.59,0018.12,0008.82
2023-07-16 22:09:00,SystemResetWarning,0833.7,4.99,000.00,028.8,025.8,000.0,036.9,030.4,27.7,0000.6,0009.62,0017.57,0008.85
2023-07-16 22:10:00,SystemResetWarning,0833.8,5.02,000.00,028.8,024.9,000.0,036.9,030.2,27.1,0000.5,0009.62,0017.61,0008.89
2023-07-16 22:11:00,SystemResetWarning,0833.8,5.00,000.00,028.7,025.1,000.0,036.9,030.1,26.5,0000.6,0009.60,0017.05,0008.91
2023-07-16 22:12:00,SystemResetWarning,0833.8,5.00,000.00,028.6,025.4,000.0,036.9,030.0,27.1,0000.8,0009.64,0017.04,0008.92
2023-07-16 22:13:00,SystemResetWarning,0833.8,5.00,000.00,028.6,025.9,000.0,037.0,030.1,28.0,0000.9,0009.63,0017.38,0008.93
2023-07-16 22:14:00,SystemResetWarning,0833.8,5.00,000.00,028.7,026.4,000.0,037.0,030.2,27.6,0000.8,0009.63,0017.54,0008.92
2023-07-16 22:15:00,SystemResetWarning,0833.8,4.99,000.00,028.7,026.8,000.0,037.0,030.4,28.3,0000.4,0009.62,0017.07,0008.91
2023-07-16 22:16:00,SystemResetWarning,0833.8,4.99,000.00,028.7,027.1,000.0,037.0,030.4,27.8,0000.5,0009.61,0016.42,0008.91
2023-07-16 22:17:00,SystemResetWarning,0833.8,5.00,000.00,028.8,027.4,000.0,037.1,030.5,27.0,0000.9,0009.66,0015.73,0008.94
2023-07-16 22:18:00,SystemResetWarning,0833.8,5.01,000.00,028.9,027.7,000.0,037.1,030.6,26.8,0000.8,0009.65,0015.60,0008.97
2023-07-16 22:19:00,SystemResetWarning,0833.8,4.99,000.00,028.9,027.1,000.0,037.0,030.6,27.4,0000.7,0009.60,0015.53,0008.95
2023-07-16 22:20:00,SystemResetWarning,0833.8,5.00,000.00,028.8,025.4,000.0,037.0,030.3,26.8,0000.8,0009.52,0016.32,0008.89
2023-07-16 22:21:00,SystemResetWarning,0833.7,5.01,000.00,028.8,024.9,000.0,036.9,030.1,27.0,0000.6,0009.49,0016.35,0008.83
2023-07-16 22:22:00,SystemResetWarning,0833.7,5.01,000.00,028.7,025.2,000.0,036.9,030.0,27.6,0000.4,0009.47,0016.82,0008.78
2023-07-16 22:23:00,SystemResetWarning,0833.6,5.00,000.00,028.7,025.6,000.0,036.9,030.0,27.2,0000.4,0009.43,0017.29,0008.71
2023-07-16 22:24:00,SystemResetWarning,0833.7,5.00,000.00,028.7,026.0,000.0,037.0,030.2,28.2,0000.4,0009.35,0017.18,0008.64
2023-07-16 22:25:00,SystemResetWarning,0833.6,5.00,000.00,028.7,026.5,000.0,037.0,030.3,27.8,0000.3,0009.29,0016.68,0008.60
2023-07-16 22:26:00,SystemResetWarning,0833.7,5.01,000.00,028.7,026.9,000.0,037.0,030.4,28.2,0000.4,0009.26,0017.02,0008.54
2023-07-16 22:27:00,SystemResetWarning,0833.7,4.99,000.00,028.8,027.3,000.0,037.1,030.5,27.6,0000.5,0009.27,0017.46,0008.52
2023-07-16 22:28:00,SystemResetWarning,0833.7,4.99,000.00,028.8,027.6,000.0,037.1,030.6,27.0,0000.2,0009.24,0017.28,0008.51
2023-07-16 22:29:00,SystemResetWarning,0833.7,4.99,000.00,028.9,027.7,000.0,037.1,030.7,26.8,0000.2,0009.24,0017.44,0008.52
2023-07-16 22:30:00,SystemResetWarning,0833.7,5.00,000.00,028.9,026.5,000.0,037.0,030.5,27.8,0000.5,0009.24,0017.53,0008.55
2023-07-16 22:31:00,SystemResetWarning,0833.7,5.01,000.00,028.8,025.1,000.0,036.9,030.3,28.2,0000.5,0009.29,0016.73,0008.58
2023-07-16 22:32:00,SystemResetWarning,0833.7,5.01,000.00,028.8,025.0,000.0,036.9,030.1,28.0,0000.7,0009.31,0017.12,0008.60
2023-07-16 22:33:00,SystemResetWarning,0833.6,5.01,000.00,028.7,025.4,000.0,036.9,030.0,27.9,0000.8,0009.37,0018.12,0008.63
2023-07-16 22:34:00,SystemResetWarning,0833.6,5.00,000.00,028.7,025.8,000.0,037.0,030.1,28.6,0000.8,0009.40,0017.80,0008.67
2023-07-16 22:35:00,SystemResetWarning,0833.6,5.00,000.00,028.7,026.3,000.0,037.0,030.2,29.2,0000.7,0009.45,0018.67,0008.71
2023-07-16 22:36:00,SystemResetWarning,0833.7,5.00,000.00,028.7,026.7,000.0,037.0,030.4,28.3,0000.7,0009.47,0019.04,0008.73
2023-07-16 22:37:00,SystemResetWarning,0833.7,5.00,000.00,028.8,027.1,000.0,037.1,030.5,28.4,0000.7,0009.52,0018.45,0008.77
2023-07-16 22:38:00,SystemResetWarning,0833.7,4.99,000.00,028.8,027.4,000.0,037.1,030.6,28.4,0000.6,0009.58,0019.18,0008.82
2023-07-16 22:39:00,SystemResetWarning,0833.6,4.99,000.00,028.9,027.2,000.0,037.1,030.6,28.2,0000.7,0009.58,0019.76,0008.83
2023-07-16 22:40:00,SystemResetWarning,0833.5,5.00,000.00,028.9,025.7,000.0,037.0,030.4,28.0,0000.8,0009.59,0019.63,0008.82
2023-07-16 22:41:00,SystemResetWarning,0833.5,5.00,000.00,028.8,024.8,000.0,036.9,030.2,28.1,0000.6,0009.60,0019.47,0008.81
2023-07-16 22:42:00,SystemResetWarning,0833.5,5.01,000.00,028.7,025.0,000.0,036.9,030.1,28.7,0000.6,0009.58,0019.59,0008.81
2023-07-16 22:43:00,SystemResetWarning,0833.5,5.00,000.00,028.7,025.4,000.0,037.0,030.0,29.4,0000.5,0009.59,0019.53,0008.80
2023-07-16 22:44:00,SystemResetWarning,0833.6,5.00,000.00,028.7,025.9,000.0,037.0,030.2,29.8,0000.5,0009.57,0018.25,0008.78
2023-07-16 22:45:00,SystemResetWarning,0833.6,5.00,000.00,028.7,026.4,000.0,037.0,030.3,29.1,0000.7,0009.54,0018.32,0008.77
2023-07-16 22:46:00,SystemResetWarning,0833.7,5.00,000.00,028.7,026.8,000.0,037.0,030.4,29.9,0000.7,0009.57,0017.54,0008.78
2023-07-16 22:47:00,SystemResetWarning,0833.6,4.99,000.00,028.8,027.2,000.0,037.1,030.5,29.5,0000.7,0009.59,0016.88,0008.80
2023-07-16 22:48:00,SystemResetWarning,0833.7,4.99,000.00,028.8,027.5,000.0,037.1,030.6,28.9,0000.7,0009.60,0016.81,0008.82
2023-07-16 22:49:00,SystemResetWarning,0833.7,5.00,000.00,028.9,027.5,000.0,037.1,030.7,28.9,0000.8,0009.57,0015.77,0008.80
2023-07-16 22:50:00,SystemResetWarning,0833.6,5.00,000.00,028.9,026.0,000.0,037.0,030.5,29.1,0000.7,0009.58,0015.16,0008.82
2023-07-16 22:51:00,SystemResetWarning,0833.5,5.00,000.00,028.8,024.9,000.0,036.9,030.2,29.4,0000.7,0009.59,0015.93,0008.82
2023-07-16 22:52:00,SystemResetWarning,0833.5,5.01,000.00,028.7,025.0,000.0,036.9,030.1,29.7,0000.7,0009.59,0016.95,0008.83
2023-07-16 22:53:00,SystemResetWarning,0833.6,5.01,000.00,028.7,025.4,000.0,036.9,030.0,28.8,0000.7,0009.63,0017.12,0008.85
2023-07-16 22:54:00,SystemResetWarning,0833.6,5.00,000.00,028.7,025.9,000.0,037.0,030.1,28.4,0000.6,0009.68,0016.82,0008.88
2023-07-16 22:55:00,SystemResetWarning,0833.7,5.00,000.00,028.7,026.4,000.0,037.0,030.3,29.0,0000.5,0009.74,0016.93,0008.92
2023-07-16 22:56:00,SystemResetWarning,0833.7,5.00,000.00,028.7,026.8,000.0,037.0,030.4,29.1,-000.0,0009.78,0016.84,0008.95
2023-07-16 22:57:00,SystemResetWarning,0833.7,5.00,000.00,028.8,027.2,000.0,037.1,030.5,29.1,0000.1,0009.79,0017.23,0008.97
2023-07-16 22:58:00,SystemResetWarning,0833.7,5.00,000.00,028.8,027.5,000.0,037.1,030.6,29.7,-000.0,0009.79,0018.11,0008.96
2023-07-16 22:59:00,SystemResetWarning,0833.7,4.99,000.00,028.9,026.9,000.0,037.1,030.5,29.3,-000.1,0009.81,0018.65,0008.96
